Madisonville, KY

4:04 PM CST on December 14, 2017 (GMT -0600)
Madisonville

Weather History for K2I0 - April, 2013

Change the Weather History Date:

Wednesday, April 24, 2013

  Actual Average (KOWB) Record (KOWB)
Temperature  
Mean Temperature 53 °F -  
Max Temperature 68 °F 70 °F 90 °F (1965)
Min Temperature 38 °F 46 °F 32 °F (1997)
Degree Days  
Heating Degree Days 12    
Growing Degree Days 3 (Base 50)    
Moisture  
Dew Point 44 °F    
Average Humidity 86    
Maximum Humidity 99    
Minimum Humidity 67    
Precipitation  
Precipitation 0.60 in - - ()
Sea Level Pressure  
Sea Level Pressure 30.09 in    
Wind  
Wind Speed 9 mph (NW)    
Max Wind Speed 18 mph    
Max Gust Speed 26 mph    
Visibility 9 miles    
Events Rain    
Averages and records for this station are not official NWS values.
T = Trace of Precipitation, MM = Missing Value Source: NWS Daily Summary

Daily Weather History Graph

Daily Weather History Graph

Search for Another Location

Airport or City:

Trip Planner

Search our weather history database for the weather conditions in past years. The results will help you decide how hot, cold, wet, or windy it might be!

Date:

Astronomy

Apr. 24, 2013 Rise Set
Actual Time 6:02 AM CDT 7:33 PM CDT
Civil Twilight 5:35 AM CDT 8:00 PM CDT
Nautical Twilight 5:02 AM CDT 8:33 PM CDT
Astronomical Twilight 4:27 AM CDT 9:08 PM CDT
Moon 6:36 PM CDT (4/24) 5:04 AM CDT (4/24)
Length of Visible Light 14h 25m
Length of Day
13h 30m
Waxing Gibbous, 98% of the Moon is Illuminated
Apr 24
Waxing Gibbous
Apr 25
Full
May 2
Last Quarter
May 9
New
May 17
First Quarter

Hourly Weather History & Observations

Time (CDT) Temp. Windchill Dew Point Humidity Pressure Visibility Wind Dir Wind Speed Gust Speed Precip Events Conditions
12:15 AM 68.5 °F - 57.6 °F 68% 29.87 in 10.0 mi SSW 12.7 mph - N/A   Scattered Clouds
12:35 AM 68.4 °F - 57.6 °F 68% 29.87 in 10.0 mi SSW 11.5 mph 19.6 mph N/A   Mostly Cloudy
12:55 AM 68.4 °F - 57.6 °F 68% 29.86 in 10.0 mi SSW 10.4 mph 18.4 mph N/A   Overcast
1:15 AM 67.6 °F - 57.9 °F 71% 29.87 in 10.0 mi West 9.2 mph - N/A   Overcast
1:35 AM 65.7 °F - 57.2 °F 74% 29.87 in 10.0 mi NNW 11.5 mph 18.4 mph N/A   Overcast
1:55 AM 59.0 °F - 56.1 °F 90% 29.88 in 10.0 mi NNW 9.2 mph 17.3 mph N/A Rain Light Rain
2:15 AM 55.8 °F - 54.1 °F 94% 29.90 in 10.0 mi NNW 12.7 mph - N/A   Overcast
2:35 AM 52.7 °F - 51.1 °F 94% 29.90 in 10.0 mi NNW 12.7 mph 16.1 mph N/A   Overcast
2:55 AM 51.6 °F - 50.2 °F 95% 29.91 in 10.0 mi NW 8.1 mph 16.1 mph N/A   Overcast
3:15 AM 50.9 °F - 49.5 °F 95% 29.91 in 10.0 mi North 6.9 mph - N/A   Overcast
3:35 AM 50.0 °F - 49.1 °F 97% 29.91 in 10.0 mi NNW 8.1 mph - N/A   Overcast
3:55 AM 50.0 °F - 48.7 °F 95% 29.91 in 10.0 mi NNW 5.8 mph - N/A   Overcast
4:15 AM 49.5 °F - 48.0 °F 95% 29.93 in 10.0 mi NNW 8.1 mph - N/A Rain Rain
4:35 AM 48.9 °F - 48.0 °F 97% 29.92 in 10.0 mi NW 9.2 mph - 0.03 in Rain Light Rain
4:55 AM 48.4 °F - 47.7 °F 97% 29.90 in 10.0 mi North 3.5 mph - 0.04 in Rain Light Rain
5:15 AM 48.2 °F - 47.3 °F 97% 29.91 in 10.0 mi NW 9.2 mph - 0.01 in Rain Rain
5:35 AM 47.3 °F - 46.8 °F 98% 29.91 in 10.0 mi NW 5.8 mph - 0.02 in Rain Rain
5:55 AM 46.8 °F - 46.2 °F 98% 29.92 in 4.0 mi NNW 12.7 mph - 0.14 in Rain Rain
6:15 AM 46.4 °F 43.5 °F 45.9 °F 98% 29.90 in 7.0 mi North 5.8 mph - 0.03 in Rain Heavy Rain
6:35 AM 46.4 °F 41.9 °F 45.9 °F 98% 29.92 in 5.0 mi NNW 9.2 mph - 0.10 in Rain Heavy Rain
6:55 AM 45.7 °F 39.5 °F 45.3 °F 99% 29.95 in 2.5 mi NW 13.8 mph 19.6 mph 0.21 in Rain Rain
7:15 AM 45.3 °F 39.0 °F 44.6 °F 97% 29.99 in 4.0 mi NW 13.8 mph - 0.05 in Rain Rain
7:35 AM 45.0 °F 42.6 °F 44.2 °F 97% 29.96 in 5.0 mi NW 4.6 mph - 0.18 in Rain Rain
7:55 AM 44.8 °F 41.6 °F 44.2 °F 98% 29.93 in 10.0 mi North 5.8 mph - 0.20 in Rain Light Rain
8:15 AM 45.0 °F - 44.1 °F 97% 29.94 in 10.0 mi Calm Calm - N/A Rain Rain
8:35 AM 45.5 °F 40.3 °F 44.6 °F 97% 29.94 in 10.0 mi NNW 10.4 mph - 0.01 in Rain Light Rain
8:55 AM 45.5 °F 39.9 °F 44.6 °F 97% 30.00 in 10.0 mi NW 11.5 mph 17.3 mph 0.01 in   Overcast
9:15 AM 45.0 °F 38.9 °F 43.9 °F 96% 30.02 in 10.0 mi NNW 12.7 mph 21.9 mph N/A   Overcast
9:35 AM 44.6 °F 36.9 °F 43.0 °F 94% 30.03 in 7.0 mi NW 18.4 mph 26.5 mph N/A   Overcast
9:55 AM 44.2 °F 38.4 °F 43.2 °F 96% 30.06 in 4.0 mi NW 11.5 mph 23.0 mph N/A   Overcast
10:15 AM 44.6 °F 39.7 °F 43.5 °F 96% 30.10 in 5.0 mi NW 9.2 mph 17.3 mph N/A   Overcast
10:35 AM 44.6 °F 39.2 °F 43.3 °F 95% 30.12 in 4.0 mi NW 10.4 mph 17.3 mph N/A   Light Drizzle
10:55 AM 45.0 °F 39.3 °F 43.7 °F 95% 30.12 in 4.0 mi NW 11.5 mph 17.3 mph N/A Rain Light Rain
11:15 AM 45.7 °F 41.5 °F 43.5 °F 92% 30.13 in 10.0 mi NNW 8.1 mph 18.4 mph N/A   Overcast
11:35 AM 46.2 °F 42.7 °F 43.2 °F 89% 30.14 in 10.0 mi NNW 6.9 mph - N/A   Overcast
11:55 AM 46.4 °F 42.4 °F 42.1 °F 85% 30.15 in 10.0 mi NW 8.1 mph - N/A   Overcast
12:15 PM 46.0 °F 41.0 °F 42.3 °F 87% 30.16 in 10.0 mi NW 10.4 mph - N/A   Overcast
12:35 PM 46.4 °F 42.4 °F 42.8 °F 87% 30.16 in 10.0 mi NW 8.1 mph - N/A   Overcast
12:55 PM 47.5 °F - 42.8 °F 84% 30.16 in 10.0 mi NW 11.5 mph 17.3 mph N/A   Overcast
1:15 PM 47.3 °F - 41.2 °F 79% 30.17 in 10.0 mi NNW 9.2 mph - N/A   Overcast
1:35 PM 47.3 °F - 41.5 °F 80% 30.17 in 10.0 mi WNW 12.7 mph 17.3 mph N/A   Overcast
1:55 PM 48.4 °F - 42.1 °F 79% 30.17 in 10.0 mi NW 8.1 mph - N/A   Overcast
2:15 PM 49.3 °F - 41.7 °F 75% 30.18 in 10.0 mi NW 12.7 mph 20.7 mph N/A   Overcast
2:35 PM 47.5 °F - 41.0 °F 78% 30.19 in 10.0 mi NW 12.7 mph 21.9 mph N/A   Overcast
2:55 PM 47.3 °F - 40.8 °F 78% 30.20 in 10.0 mi NNW 10.4 mph - N/A   Overcast
3:15 PM 47.8 °F - 40.6 °F 76% 30.19 in 10.0 mi NW 11.5 mph 16.1 mph N/A   Overcast
3:35 PM 48.7 °F - 42.3 °F 78% 30.20 in 10.0 mi NW 9.2 mph - N/A   Overcast
3:55 PM 49.3 °F - 41.0 °F 73% 30.21 in 10.0 mi WNW 9.2 mph - N/A   Overcast
4:15 PM 49.5 °F - 40.8 °F 72% 30.21 in 10.0 mi NW 11.5 mph 16.1 mph N/A   Overcast
4:35 PM 48.9 °F - 41.2 °F 75% 30.21 in 10.0 mi North 11.5 mph - N/A   Overcast
4:55 PM 50.7 °F - 40.3 °F 67% 30.22 in 10.0 mi NW 10.4 mph 16.1 mph N/A   Overcast
5:15 PM 49.3 °F - 39.7 °F 70% 30.23 in 10.0 mi NW 10.4 mph - N/A   Overcast
5:35 PM 48.7 °F - 39.4 °F 70% 30.24 in 10.0 mi NW 9.2 mph - N/A   Overcast
5:55 PM 48.6 °F - 39.9 °F 72% 30.24 in 10.0 mi NW 8.1 mph - N/A   Overcast
6:15 PM 49.6 °F - 39.9 °F 69% 30.24 in 10.0 mi NW 6.9 mph - N/A   Mostly Cloudy
6:35 PM 49.1 °F - 39.4 °F 69% 30.24 in 10.0 mi NW 4.6 mph - N/A   Mostly Cloudy
6:55 PM 47.8 °F - 39.6 °F 73% 30.23 in 10.0 mi NNW 5.8 mph - N/A   Scattered Clouds
7:15 PM 46.4 °F 44.3 °F 38.8 °F 75% 30.23 in 10.0 mi NNW 4.6 mph - N/A   Clear
7:35 PM 46.2 °F 45.0 °F 38.5 °F 74% 30.24 in 10.0 mi WNW 3.5 mph - N/A   Clear
7:55 PM 45.7 °F 44.4 °F 38.5 °F 76% 30.25 in 10.0 mi NW 3.5 mph - N/A   Clear
8:15 PM 44.8 °F 42.4 °F 38.8 °F 80% 30.26 in 10.0 mi WNW 4.6 mph - N/A   Clear
8:35 PM 43.5 °F 41.9 °F 38.5 °F 82% 30.26 in 10.0 mi West 3.5 mph - N/A   Clear
8:55 PM 43.3 °F 41.7 °F 38.7 °F 84% 30.27 in 10.0 mi West 3.5 mph - N/A   Clear
10:35 PM 39.7 °F 37.6 °F 38.3 °F 95% 30.30 in 10.0 mi SW 3.5 mph - N/A   Clear
10:55 PM 38.5 °F 36.1 °F 37.8 °F 97% 30.31 in 10.0 mi South 3.5 mph - N/A   Clear
11:15 PM 38.5 °F - 37.8 °F 97% 30.31 in 10.0 mi Calm Calm - N/A   Clear
11:35 PM 38.3 °F - 37.8 °F 98% 30.30 in 10.0 mi Calm Calm - N/A   Clear
11:55 PM 39.2 °F - 38.5 °F 97% 30.30 in 10.0 mi Calm Calm - N/A   Clear